Juliana Airport, Saint Maartin

3:14 AM AST on February 07, 2016 (GMT -0400)
Princess Juliana International

Weather History for TNCM - November, 2013

Change the Weather History Date:

Monday, November 4, 2013

  Actual Average Record
Temperature  
Mean Temperature 79 °F -  
Max Temperature 84 °F 84 °F 87 °F (1996)
Min Temperature 74 °F 74 °F 74 °F (2013)
Cooling Degree Days 14    
Growing Degree Days 29 (Base 50)    
Moisture  
Dew Point 73 °F    
Average Humidity 82    
Maximum Humidity 94    
Minimum Humidity 72    
Precipitation  
Precipitation 0.47 in 0.16 in - ()
Sea Level Pressure  
Sea Level Pressure 29.89 in    
Wind  
Wind Speed 4 mph ()    
Max Wind Speed 10 mph    
Max Gust Speed 22 mph    
Visibility 6.7 miles    
Events Rain    
Averages and records for this station are not official NWS values.
T = Trace of Precipitation, MM = Missing Value Source: Averaged Metar Reports

Daily Weather History Graph

Daily Weather History Graph

Search for Another Location

Airport or City:

Trip Planner

Search our weather history database for the weather conditions in past years. The results will help you decide how hot, cold, wet, or windy it might be!

Date:

Astronomy

Nov. 04, 2013 Rise Set
Actual Time 6:13 AM AST 5:38 PM AST
Civil Twilight 5:50 AM AST 6:01 PM AST
Nautical Twilight 5:24 AM AST 6:27 PM AST
Astronomical Twilight 4:58 AM AST 6:53 PM AST
Moon 7:11 AM AST (11/4) 6:48 PM AST (11/4)
Length of Visible Light 12h 10m
Length of Day
11h 25m
New Moon, 2% of the Moon is Illuminated
Nov 4
New Moon
Nov 10
First Quarter
Nov 17
Full
Nov 25
Last Quarter
Dec 2
New

Hourly Weather History & Observations

Time (AST) Temp. Heat Index Dew Point Humidity Pressure Visibility Wind Dir Wind Speed Gust Speed Precip Events Conditions
12:00 AM 75.2 °F - 71.6 °F 89% 29.92 in 6.2 mi West 4.6 mph - N/A   Mostly Cloudy
1:00 AM 75.2 °F - 71.6 °F 89% 29.89 in 6.2 mi ENE 1.2 mph - N/A   Scattered Clouds
2:00 AM 78 °F - 74 °F 86% 29.90 in 12 mi ESE 2.3 mph - -   Partly Cloudy
2:00 AM 77.0 °F - 75.2 °F 94% 29.89 in 6.2 mi Variable 2.3 mph - N/A   Mostly Cloudy
3:00 AM 78.8 °F - 73.4 °F 83% 29.86 in 6.2 mi ESE 8.1 mph - N/A   Partly Cloudy
4:00 AM 78.8 °F - 71.6 °F 78% 29.86 in 6.2 mi East 6.9 mph - N/A   Partly Cloudy
5:00 AM 79 °F - 72 °F 75% 29.87 in 12 mi East 9.2 mph - -   Partly Cloudy
5:00 AM 78.8 °F - 73.4 °F 83% 29.86 in 6.2 mi East 9.2 mph - N/A   Scattered Clouds
6:00 AM 78.8 °F - 71.6 °F 78% 29.86 in 6.2 mi East 5.8 mph - N/A   Mostly Cloudy
7:00 AM 80.6 °F 84.6 °F 71.6 °F 74% 29.89 in 6.2 mi East 5.8 mph - N/A   Mostly Cloudy
8:00 AM 82 °F - 74 °F 72% 29.92 in 28 mi ESE 3.5 mph - -   Partly Cloudy
8:00 AM 82.4 °F 88.2 °F 73.4 °F 74% 29.92 in 6.2 mi ESE 6.9 mph - N/A   Scattered Clouds
9:00 AM 82.4 °F 89.5 °F 75.2 °F 79% 29.92 in 6.2 mi ESE 6.9 mph - N/A   Partly Cloudy
10:00 AM 80.6 °F 85.4 °F 73.4 °F 79% 29.95 in 5.0 mi ESE 9.2 mph - N/A Rain Light Rain Showers
11:00 AM 83 °F - 76 °F 73% 29.94 in 44 mi SE 9.2 mph - - Rain Light Rain Showers
11:00 AM 80.6 °F 85.4 °F 73.4 °F 79% 29.89 in 6.2 mi SSE 4.6 mph 21.9 mph N/A   Scattered Clouds
12:00 PM 80.6 °F 85.4 °F 73.4 °F 79% 29.89 in 6.2 mi SSE 4.6 mph 21.9 mph N/A   Scattered Clouds
1:00 PM 78.8 °F - 71.6 °F 78% 29.86 in 6.2 mi ESE 2.3 mph - N/A   Scattered Clouds
2:00 PM 78 °F - 73 °F 81% 29.87 in 6 mi SE 10.4 mph - -   Overcast
2:00 PM 78.8 °F - 73.4 °F 83% 29.86 in 5.6 mi SE 10.4 mph - N/A Rain Light Rain Showers
3:00 PM 77.0 °F - 73.4 °F 89% 29.86 in 6.2 mi Variable 2.3 mph - N/A Rain Light Rain
4:00 PM 80.6 °F 85.4 °F 73.4 °F 79% 29.86 in 6.2 mi ENE 4.6 mph - N/A   Mostly Cloudy
5:00 PM 80 °F - 74 °F 78% 29.87 in 12 mi 1.2 mph - -   Partly Cloudy
5:00 PM 80.6 °F 86.2 °F 75.2 °F 84% 29.86 in 6.2 mi Variable 1.2 mph - N/A   Scattered Clouds
6:00 PM 80.6 °F 85.4 °F 73.4 °F 79% 29.86 in 6.2 mi Variable 1.2 mph - N/A   Partly Cloudy
7:00 PM 78.8 °F - 73.4 °F 83% 29.86 in 6.2 mi Variable 2.3 mph - N/A   Partly Cloudy
8:00 PM 78 °F - 74 °F 85% 29.90 in 22 mi Calm Calm - -   Partly Cloudy
8:00 PM 78.8 °F - 75.2 °F 89% 29.89 in 6.2 mi Calm Calm - N/A   Partly Cloudy
9:00 PM 77.0 °F - 71.6 °F 83% 29.89 in 6.2 mi Variable 2.3 mph - N/A Rain Light Rain Showers
10:00 PM 77.0 °F - 73.4 °F 89% 29.92 in 6.2 mi Variable 1.2 mph - N/A   Partly Cloudy
11:00 PM 76 °F - 73 °F 89% 29.92 in 25 mi 1.2 mph - - Rain Light Rain Showers
11:00 PM 77.0 °F - 73.4 °F 89% 29.92 in 6.2 mi Variable 1.2 mph - N/A   Partly Cloudy